| time (UTC) | temp C | wind direction | speed KPH | gust KPH | rain 1hr cm | rain 24hr cm | rain mn cm | humidity % | barometer mb |
| 20260502224522 | 14 | 301 | 1.6 | 8.0 | 0.00 | 0.08 | 0.08 | 57 | 1018.3 |
| 20260502223522 | 14 | 323 | 1.6 | 6.4 | 0.00 | 0.08 | 0.08 | 51 | 1018.4 |
| 20260502222517 | 14 | 325 | 1.6 | 9.7 | 0.00 | 0.08 | 0.08 | 56 | 1018.3 |
| 20260502221522 | 14 | 296 | 1.6 | 8.0 | 0.00 | 0.08 | 0.08 | 61 | 1018.3 |
| 20260502220522 | 13 | 289 | 1.6 | 6.4 | 0.00 | 0.08 | 0.08 | 59 | 1018.4 |
| 20260502215522 | 13 | 294 | 1.6 | 6.4 | 0.00 | 0.08 | 0.08 | 64 | 1018.5 |
| 20260502214522 | 12 | 296 | 0.0 | 4.8 | 0.00 | 0.08 | 0.08 | 65 | 1018.5 |
| 20260502213522 | 12 | 296 | 0.0 | 6.4 | 0.00 | 0.08 | 0.08 | 60 | 1018.5 |
| 20260502212517 | 13 | 296 | 0.0 | 3.2 | 0.00 | 0.08 | 0.08 | 67 | 1018.6 |
| 20260502211517 | 12 | 0.0 | 4.8 | 0.03 | 0.08 | 0.08 | 73 | 1018.6 | |
| 20260502210542 | 10 | 0.0 | 0.0 | 0.03 | 0.08 | 0.08 | 81 | 1018.6 | |
| 20260502205522 | 10 | 0.0 | 3.2 | 0.03 | 0.08 | 0.08 | 81 | 1018.7 | |
| 20260502204522 | 10 | 0.0 | 1.6 | 0.08 | 0.08 | 0.08 | 79 | 1018.9 | |
| 20260502203522 | 10 | 296 | 0.0 | 8.0 | 0.08 | 0.08 | 0.08 | 77 | 1019.0 |
| 20260502202522 | 10 | 296 | 3.2 | 8.0 | 0.08 | 0.08 | 0.08 | 77 | 1019.1 |
| 20260502201517 | 10 | 297 | 3.2 | 6.4 | 0.05 | 0.05 | 0.05 | 82 | 1019.2 |
| 20260502200522 | 9 | 296 | 6.4 | 9.7 | 0.05 | 0.05 | 0.05 | 82 | 1019.2 |
| 20260502195522 | 9 | 307 | 8.0 | 14.5 | 0.05 | 0.05 | 0.05 | 81 | 1019.1 |
| 20260502194542 | 10 | 318 | 9.7 | 16.1 | 0.00 | 0.00 | 0.00 | 75 | 1018.9 |
| 20260502193522 | 12 | 320 | 4.8 | 16.1 | 0.00 | 0.00 | 0.00 | 64 | 1018.6 |
| 20260502192522 | 13 | 255 | 0.0 | 8.0 | 0.00 | 0.00 | 0.00 | 57 | 1018.2 |
| 20260502191542 | 14 | 80 | 0.0 | 9.7 | 0.00 | 0.00 | 0.00 | 60 | 1018.1 |
| 20260502190516 | 15 | 343 | 1.6 | 6.4 | 0.00 | 0.00 | 0.00 | 53 | 1018.1 |
| 20260502185522 | 15 | 0 | 3.2 | 9.7 | 0.00 | 0.00 | 0.00 | 61 | 1018.3 |
| 20260502184522 | 14 | 356 | 1.6 | 9.7 | 0.00 | 0.00 | 0.00 | 62 | 1018.3 |
| 20260502183522 | 14 | 302 | 1.6 | 12.9 | 0.00 | 0.00 | 0.00 | 72 | 1018.4 |
| 20260502182522 | 11 | 324 | 0.0 | 6.4 | 0.00 | 0.00 | 0.00 | 66 | 1018.5 |
| 20260502181522 | 11 | 0.0 | 3.2 | 0.00 | 0.00 | 0.00 | 71 | 1018.4 | |
| 20260502180537 | 11 | 329 | 3.2 | 11.3 | 0.00 | 0.00 | 0.00 | 70 | 1018.6 |
| 20260502163523 | 16 | 329 | 4.8 | 16.1 | 0.00 | 0.00 | 0.00 | 54 | 1017.9 |
| 20260502162522 | 16 | 325 | 3.2 | 11.3 | 0.00 | 0.00 | 0.00 | 56 | 1017.8 |
| 20260502161542 | 15 | 287 | 0.0 | 4.8 | 0.00 | 0.00 | 0.00 | 52 | 1017.9 |
| 20260502160522 | 14 | 257 | 1.6 | 6.4 | 0.00 | 0.00 | 0.00 | 57 | 1017.9 |
| 20260502151521 | 14 | 74 | 0.0 | 6.4 | 0.00 | 0.00 | 0.00 | 60 | 1017.5 |
| 20260502150522 | 13 | 75 | 1.6 | 8.0 | 0.00 | 0.00 | 0.00 | 60 | 1017.4 |
| 20260502130542 | 10 | 91 | 0.0 | 8.0 | 0.00 | 0.00 | 0.00 | 78 | 1017.3 |
| 20260502123521 | 8 | 329 | 0.0 | 3.2 | 0.00 | 0.00 | 0.00 | 84 | 1017.2 |
| 20260502122536 | 8 | 329 | 0.0 | 3.2 | 0.00 | 0.00 | 0.00 | 85 | 1017.1 |
| 20260502121542 | 7 | 329 | 0.0 | 3.2 | 0.00 | 0.00 | 0.00 | 86 | 1017.1 |
| 20260502120521 | 7 | 329 | 0.0 | 3.2 | 0.00 | 0.00 | 0.00 | 86 | 1017.1 |
| 20260502115521 | 7 | 0.0 | 0.0 | 0.00 | 0.00 | 0.00 | 87 | 1017.1 | |
| 20260502114521 | 7 | 0.0 | 0.0 | 0.00 | 0.00 | 0.00 | 88 | 1017.1 | |
| 20260502113521 | 6 | 0.0 | 0.0 | 0.00 | 0.00 | 0.00 | 89 | 1017.0 | |
| 20260502112536 | 7 | 0.0 | 0.0 | 0.00 | 0.00 | 0.00 | 90 | 1017.1 | |
| 20260502111516 | 6 | 0.0 | 0.0 | 0.00 | 0.00 | 0.00 | 90 | 1017.0 | |
| 20260502110522 | 6 | 0.0 | 0.0 | 0.00 | 0.00 | 0.00 | 91 | 1017.0 | |
| 20260502105522 | 6 | 0.0 | 0.0 | 0.00 | 0.00 | 0.00 | 91 | 1016.9 | |
| 20260502104521 | 6 | 0.0 | 0.0 | 0.00 | 0.00 | 0.00 | 91 | 1016.8 | |
| 20260502103521 | 6 | 0.0 | 0.0 | 0.00 | 0.00 | 0.00 | 91 | 1016.8 | |
| 20260502102522 | 6 | 0.0 | 0.0 | 0.00 | 0.00 | 0.00 | 90 | 1016.8 | |
| 20260502101516 | 6 | 0.0 | 0.0 | 0.00 | 0.00 | 0.00 | 91 | 1016.9 | |
| 20260502100522 | 6 | 0.0 | 0.0 | 0.00 | 0.00 | 0.00 | 90 | 1016.8 | |
| 20260502090516 | 6 | 0.0 | 0.0 | 0.00 | 0.00 | 0.00 | 91 | 1016.7 | |
| 20260502071521 | 6 | 0.0 | 0.0 | 0.00 | 0.00 | 0.00 | 89 | 1016.8 | |
| 20260502070521 | 6 | 0.0 | 0.0 | 0.00 | 0.00 | 0.00 | 89 | 1016.7 | |
| 20260502065517 | 6 | 0.0 | 0.0 | 0.00 | 0.00 | 0.00 | 88 | 1016.8 | |
| 20260502064536 | 6 | 0.0 | 0.0 | 0.00 | 0.00 | 0.00 | 87 | 1016.7 | |
| 20260502063522 | 6 | 0.0 | 0.0 | 0.00 | 0.00 | 0.00 | 85 | 1016.7 | |
| 20260502062522 | 6 | 0.0 | 0.0 | 0.00 | 0.00 | 0.00 | 86 | 1016.7 | |
| 20260502061521 | 6 | 0.0 | 0.0 | 0.00 | 0.00 | 0.00 | 85 | 1016.7 | |
| 20260502060521 | 6 | 0.0 | 0.0 | 0.00 | 0.00 | 0.00 | 83 | 1016.7 | |
| 20260502055522 | 6 | 0.0 | 0.0 | 0.00 | 0.00 | 0.00 | 83 | 1016.8 | |
| 20260502054516 | 6 | 0.0 | 0.0 | 0.00 | 0.00 | 0.00 | 83 | 1016.8 | |
| 20260502053521 | 6 | 0.0 | 0.0 | 0.00 | 0.00 | 0.00 | 82 | 1016.8 | |
| 20260502052522 | 6 | 0.0 | 0.0 | 0.00 | 0.00 | 0.00 | 83 | 1016.9 | |
| 20260502051542 | 6 | 0.0 | 0.0 | 0.00 | 0.00 | 0.00 | 83 | 1016.8 | |
| 20260502050521 | 7 | 0.0 | 0.0 | 0.00 | 0.00 | 0.00 | 82 | 1016.8 | |
| 20260502045540 | 7 | 0.0 | 0.0 | 0.00 | 0.00 | 0.00 | 82 | 1016.8 | |
| 20260502044540 | 7 | 0.0 | 0.0 | 0.00 | 0.00 | 0.00 | 83 | 1016.8 | |
| 20260502043540 | 7 | 0.0 | 0.0 | 0.00 | 0.00 | 0.00 | 83 | 1016.9 | |
| 20260502042520 | 7 | 0.0 | 0.0 | 0.00 | 0.00 | 0.00 | 83 | 1017.0 | |
| 20260502041641 | 7 | 0.0 | 0.0 | 0.00 | 0.00 | 0.00 | 82 | 1017.0 | |
| 20260502040522 | 7 | 0.0 | 0.0 | 0.00 | 0.00 | 0.00 | 82 | 1017.1 | |
| 20260502035535 | 8 | 0.0 | 0.0 | 0.00 | 0.00 | 0.00 | 81 | 1017.1 | |
| 20260502034521 | 8 | 0.0 | 0.0 | 0.00 | 0.00 | 0.00 | 78 | 1017.1 | |
| 20260502033523 | 8 | 0.0 | 0.0 | 0.00 | 0.00 | 0.00 | 80 | 1017.2 | |
| 20260502032522 | 8 | 0.0 | 0.0 | 0.00 | 0.00 | 0.00 | 78 | 1017.2 | |
| 20260502031522 | 8 | 0.0 | 0.0 | 0.00 | 0.00 | 0.00 | 77 | 1017.3 | |
| 20260502030517 | 9 | 0.0 | 0.0 | 0.00 | 0.00 | 0.00 | 75 | 1017.5 | |
| 20260502025522 | 9 | 0.0 | 0.0 | 0.00 | 0.00 | 0.00 | 74 | 1017.5 | |
| 20260502024522 | 10 | 0.0 | 0.0 | 0.00 | 0.00 | 0.00 | 75 | 1017.4 | |
| 20260502023522 | 10 | 0.0 | 0.0 | 0.00 | 0.00 | 0.00 | 75 | 1017.4 | |
| 20260502022522 | 10 | 0.0 | 0.0 | 0.00 | 0.00 | 0.00 | 73 | 1017.3 | |
| 20260502021542 | 10 | 0.0 | 0.0 | 0.00 | 0.00 | 0.00 | 73 | 1017.2 | |
| 20260502020517 | 10 | 0.0 | 0.0 | 0.00 | 0.00 | 0.00 | 72 | 1017.0 | |
| 20260502015520 | 10 | 0.0 | 0.0 | 0.00 | 0.00 | 0.00 | 64 | 1017.0 | |
| 20260502014522 | 10 | 0.0 | 0.0 | 0.00 | 0.00 | 0.00 | 64 | 1016.8 | |
| 20260502013542 | 11 | 0.0 | 0.0 | 0.00 | 0.00 | 0.00 | 61 | 1016.6 | |
| 20260502012522 | 11 | 0.0 | 0.0 | 0.00 | 0.00 | 0.00 | 56 | 1016.3 | |
| 20260502011542 | 11 | 0.0 | 0.0 | 0.00 | 0.00 | 0.00 | 61 | 1016.1 | |
| 20260502010522 | 12 | 0.0 | 0.0 | 0.00 | 0.00 | 0.00 | 53 | 1016.0 | |
| 20260502005517 | 12 | 0.0 | 0.0 | 0.00 | 0.00 | 0.00 | 53 | 1016.0 | |
| 20260502004522 | 12 | 0.0 | 0.0 | 0.00 | 0.00 | 0.00 | 52 | 1016.0 | |
| 20260502003522 | 13 | 0.0 | 0.0 | 0.00 | 0.00 | 0.00 | 52 | 1015.9 | |
| 20260502002522 | 13 | 327 | 0.0 | 3.2 | 0.00 | 0.00 | 0.00 | 51 | 1015.8 |
| 20260502001522 | 14 | 0.0 | 0.0 | 0.00 | 0.00 | 0.00 | 49 | 1015.9 | |
| 20260502000522 | 15 | 0.0 | 3.2 | 0.00 | 0.00 | 0.00 | 48 | 1015.8 | |
| 20260501235522 | 16 | 327 | 0.0 | 4.8 | 0.00 | 0.00 | 0.00 | 41 | 1015.7 |
| 20260501234518 | 16 | 327 | 0.0 | 6.4 | 0.00 | 0.00 | 0.00 | 44 | 1015.6 |
| 20260501233522 | 16 | 334 | 1.6 | 9.7 | 0.00 | 0.00 | 0.00 | 40 | 1015.4 |
| 20260501232522 | 16 | 338 | 3.2 | 12.9 | 0.00 | 0.00 | 0.00 | 41 | 1015.4 |
| 20260501231522 | 16 | 327 | 1.6 | 8.0 | 0.00 | 0.00 | 0.00 | 40 | 1015.3 |
| 20260501230522 | 16 | 336 | 1.6 | 8.0 | 0.00 | 0.00 | 0.00 | 41 | 1015.1 |
| 20260501225522 | 16 | 336 | 3.2 | 11.3 | 0.00 | 0.00 | 0.00 | 41 | 1015.0 |